Location: Carthage
(33.8834°N, 106.6595°W)
Time: 11:02:31
(UTC+00:00)

Cosmos 1898 Rocket - Pass Details

Date: 13 February 2026
Orbit: 749 x 779 km, 74.0° (Epoch: 11 March)

Event Time Altitude Azimuth Distance (km) Brightness Sun altitude
Rises 13:04:01 0° 190° (S) 3,222 6.7 -10.8°
Reaches altitude 10° 13:06:23 10° 188° (S) 2,304 6.0 -10.3°
Maximum altitude 13:11:36 73° 105° (ESE) 811 3.8 -9.2°
Drops below altitude 10° 13:16:53 10° 21° (NNE) 2,332 6.2 -8.1°
Sets 13:19:17 0° 20° (NNE) 3,265 6.9 -7.7°
